TimeCST,TemperatureF,Dew PointF,Humidity,Sea Level PressureIn,VisibilityMPH,Wind Direction,Wind SpeedMPH,Gust SpeedMPH,PrecipitationIn,Events,Conditions,WindDirDegrees,DateUTC
12:56 AM,30.0,23.0,75,30.06,10.0,Calm,Calm,-,N/A,,Clear,0,2012-11-29 06:56:00
1:56 AM,28.9,24.1,82,30.04,10.0,Calm,Calm,-,N/A,,Clear,0,2012-11-29 07:56:00
2:56 AM,27.0,23.0,85,30.04,10.0,SSW,6.9,-,N/A,,Clear,200,2012-11-29 08:56:00
3:56 AM,26.1,21.0,81,30.03,10.0,Calm,Calm,-,N/A,,Clear,0,2012-11-29 09:56:00
4:56 AM,21.9,18.0,85,30.03,10.0,Calm,Calm,-,N/A,,Clear,0,2012-11-29 10:56:00
5:56 AM,24.1,21.0,88,30.03,10.0,Calm,Calm,-,N/A,,Clear,0,2012-11-29 11:56:00
6:56 AM,21.0,19.0,92,30.03,10.0,Calm,Calm,-,N/A,,Clear,0,2012-11-29 12:56:00
7:56 AM,21.9,19.0,89,30.02,7.0,Calm,Calm,-,N/A,,Clear,0,2012-11-29 13:56:00
8:56 AM,27.0,23.0,85,30.02,9.0,Calm,Calm,-,N/A,,Clear,0,2012-11-29 14:56:00
9:56 AM,34.0,26.1,73,30.02,10.0,Calm,Calm,-,N/A,,Clear,0,2012-11-29 15:56:00
10:56 AM,39.0,27.0,62,30.01,10.0,Calm,Calm,-,N/A,,Clear,0,2012-11-29 16:56:00
11:56 AM,45.0,27.0,49,29.99,10.0,Calm,Calm,-,N/A,,Clear,0,2012-11-29 17:56:00
12:56 PM,48.0,28.0,46,29.96,10.0,North,4.6,-,N/A,,Clear,10,2012-11-29 18:56:00
1:56 PM,51.1,28.9,43,29.93,10.0,South,4.6,-,N/A,,Clear,190,2012-11-29 19:56:00
2:56 PM,55.0,28.9,37,29.91,10.0,SSE,5.8,-,N/A,,Clear,150,2012-11-29 20:56:00
3:56 PM,55.0,28.9,37,29.90,10.0,South,5.8,-,N/A,,Clear,170,2012-11-29 21:56:00
4:56 PM,46.9,28.9,50,29.90,10.0,SSE,9.2,-,N/A,,Clear,160,2012-11-29 22:56:00
5:56 PM,44.1,28.0,53,29.94,10.0,Calm,Calm,-,N/A,,Clear,0,2012-11-29 23:56:00
6:56 PM,39.9,28.9,65,29.94,10.0,SE,5.8,-,N/A,,Clear,130,2012-11-30 00:56:00
7:56 PM,36.0,27.0,70,29.96,10.0,Calm,Calm,-,N/A,,Clear,0,2012-11-30 01:56:00
8:56 PM,30.0,24.1,79,29.96,10.0,NW,3.5,-,N/A,,Clear,310,2012-11-30 02:56:00
9:56 PM,32.0,25.0,75,29.97,10.0,West,5.8,-,N/A,,Clear,260,2012-11-30 03:56:00
10:56 PM,37.0,27.0,67,29.97,10.0,West,10.4,-,N/A,,Clear,280,2012-11-30 04:56:00
11:56 PM,34.0,26.1,73,29.98,10.0,WNW,11.5,-,N/A,,Clear,290,2012-11-30 05:56:00